Cosmos 1515 Rocket - Orbit

View from above orbital plane
View from above orbital plane
View from above satellite
View from above satellite

Ground track
Ground track

The orbit data is extracted from the following two-line orbital elements,

1 14552U 83122B   13168.52229887  .00000171  00000-0  18412-4 0  5697
2 14552 082.5241 003.2884 0015985 293.5466 123.1211 14.82509479592690
Epoch (UTC): 17 June 2013 12:32:06
Eccentricity: 0.0015985
inclination: 82.5241°
perigee height: 610 km
apogee height: 632 km
right ascension of ascending node: 3.2884°
argument of perigee: 293.5466°
revolutions per day: 14.82509479
mean anomaly at epoch: 123.1211°
orbit number at epoch: 59269

The dashed part of the orbit path shows where the satellite is in the earth's shadow,  

Developed and maintained by Chris Peat, Heavens-Above GmbH. Please read the updated FAQ before sending e-mail. Imprint. DLR